sat.trackr.live / text

‹ back to catalog

STARLINK-35748

NORAD 66206 · 2025-244A

PAYLOAD ACTIVE UNKNOWN

§ Identity

Operator
Country
US
Launch date
2025-10-28
Launch site
AFWTR
Launch vehicle
Mass (kg)
RCS (m²)

Purposes: comms

External: N2YO · Heavens-Above · Gunter

§ Orbital elements

Epoch: 2026-05-24T17:30:09.745344Z

Period
93.85 min
Inclination
53.1588°
Eccentricity
0.0001141
Mean motion
15.34417512 rev/d
Perigee alt
461.9 km
Apogee alt
463.4 km
Semi-major
6,840.8 km
B*
8.0131e-4
RAAN
236.5696°
Arg perigee
80.0865°
Mean anomaly
280.0266°
Rev number
3,330

§ Raw data

STARLINK-357481 66206U 25244A   26144.72927946  .00026809  00000+0  80131-3 0  99902 66206  53.1588 236.5696 0001141  80.0865 280.0266 15.34417512 33309

JSON: /api/v1/satellites/66206 · /tle

For live sub-satellite position, see the globe view (requires WebGL).

§ Visibility from observer

Set your observer location to see the next 7 days of passes ≥ 10°. The values pass through the URL so the page stays shareable.

No JS? Fill the form by hand. The geolocation button needs JavaScript.